Home > Weather > Kandahar > Past weeks

Flag for Afghanistan Weather for the Past 2 Weeks in Kandahar, Afghanistan

Now
41 °F

Passing clouds.


Feels Like: 34 °F
Forecast: 37 / 48 °F
Wind: 12 mph from West

Location: Herat Airport

Current Time: Feb 9, 2016 at 8:55:44 AM

Latest Report: Feb 9, 2016 at 7:25 AM


Visibility: N/A

Pressure: 29.98 "Hg (26.46 "Hg at 1018m altitude)

Humidity: 81%

Dew point: 36 °F

Location of KandaharLocation

Historic Weather in Kandahar — Graph

°F

Kandahar Temperature Yesterday

Maximum temperature yesterday: 68 °F (at 2:25 PM)
Minimum temperature yesterday: 39 °F (at 6:25 AM)
Average temperature yesterday: 55 °F

High & Low Weather Summary for the Past Weeks

 TemperatureHumidityPressure
High68 °F (Feb 7, 1:25 PM)100% (Jan 29, 6:25 AM)30.39 "Hg (Jan 29, 6:25 AM)
Low28 °F (Jan 29, 6:25 AM)10% (Feb 7, 1:25 PM)29.86 "Hg (Jan 25, 3:25 PM)
Average46 °F56%30.14 "Hg
* Reported Jan 25 7:25 AM — Feb 9 7:25 AM, Kandahar, Weather by CustomWeather, © 2016

Note: Actual official high and low records may vary slightly from our data, if they occured in-between our weather recording intervals... More about our weather records

Advertising

Kandahar Weather History for the Previous 24 Hours

 ConditionsComfort  
Time TempWeatherWind HumidityBarometerVisibility
7:25 AM
Tue, Feb 9
41 °FPassing clouds.12 mph81%29.98 "HgN/A
6:25 AM43 °FPassing clouds.5 mph76%29.95 "Hg5 mi
9:25 PM
Mon, Feb 8
48 °FPassing clouds.8 mph58%29.98 "HgN/A
8:25 PM50 °FClear.8 mph50%29.98 "Hg10 mi
7:25 PM54 °FClear.8 mph41%29.95 "Hg10 mi
6:25 PM57 °FPassing clouds.3 mph33%29.95 "HgN/A
5:25 PM63 °FPassing clouds.7 mph25%29.92 "HgN/A
4:25 PM63 °FScattered clouds.8 mph24%29.95 "HgN/A
3:25 PM68 °FScattered clouds.5 mph18%29.95 "HgN/A
2:25 PM68 °FScattered clouds.6 mph20%29.95 "HgN/A
1:25 PM64 °FScattered clouds.1 mph21%29.98 "HgN/A
12:25 PM61 °FScattered clouds.1 mph27%30.04 "HgN/A
11:25 AM57 °FPassing clouds.1 mph31%30.07 "HgN/A
10:25 AM52 °FScattered clouds.No wind38%30.07 "HgN/A
9:25 AM46 °FScattered clouds.3 mph46%30.09 "HgN/A
8:25 AM45 °FScattered clouds.No wind49%30.07 "HgN/A
Weather by CustomWeather, © 2016

See weather overviewHow to use our weather pages